TimeCST,TemperatureF,Dew PointF,Humidity,Sea Level PressureIn,VisibilityMPH,Wind Direction,Wind SpeedMPH,Gust SpeedMPH,PrecipitationIn,Events,Conditions,WindDirDegrees,DateUTC
1:51 AM,33.8,26.6,75,29.96,7.0,East,10.4,-,N/A,,Overcast,80,2013-03-05 07:51:00
2:40 AM,32.0,26.6,80,29.94,6.0,East,12.7,-,N/A,,Haze,80,2013-03-05 08:40:00
2:51 AM,32.0,27.0,82,29.97,6.0,East,11.5,-,N/A,,Haze,80,2013-03-05 08:51:00
3:51 AM,32.0,27.0,82,29.95,7.0,East,11.5,-,N/A,,Overcast,80,2013-03-05 09:51:00
4:27 AM,32.0,26.6,80,29.91,10.0,East,13.8,-,N/A,,Overcast,80,2013-03-05 10:27:00
4:51 AM,32.0,27.0,82,29.94,10.0,East,12.7,-,N/A,,Overcast,80,2013-03-05 10:51:00
5:36 AM,33.8,26.6,75,29.90,7.0,East,16.1,19.6,0.00,Snow,Light Snow,90,2013-03-05 11:36:00
5:51 AM,33.1,27.0,78,29.93,6.0,East,13.8,20.7,0.00,Snow,Light Snow,80,2013-03-05 11:51:00
6:37 AM,32.0,26.6,80,29.89,2.5,East,11.5,-,N/A,Snow,Light Snow,80,2013-03-05 12:37:00
6:51 AM,32.0,28.4,87,29.88,2.0,East,9.2,-,N/A,Snow,Light Snow,80,2013-03-05 12:51:00
7:18 AM,32.0,28.4,87,29.88,1.5,East,10.4,-,0.00,Snow,Light Snow,90,2013-03-05 13:18:00
7:49 AM,32.0,28.4,87,29.88,1.8,East,10.4,-,0.00,Snow,Light Snow,90,2013-03-05 13:49:00
7:51 AM,32.0,28.0,85,29.91,1.8,East,12.7,-,0.00,Snow,Light Snow,90,2013-03-05 13:51:00
8:11 AM,32.0,28.4,87,29.88,1.2,East,6.9,-,0.01,Snow,Light Snow,100,2013-03-05 14:11:00
8:27 AM,32.0,28.4,87,29.89,0.8,East,5.8,-,0.02,Snow,Light Snow,90,2013-03-05 14:27:00
8:51 AM,32.0,28.9,88,29.92,0.8,ENE,6.9,-,0.03,Snow,Light Snow,60,2013-03-05 14:51:00
9:22 AM,32.0,28.4,87,29.88,0.5,ENE,6.9,-,0.01,Fog-Snow,Light Snow,70,2013-03-05 15:22:00
9:51 AM,32.0,28.9,88,29.90,0.5,ENE,10.4,-,0.03,Fog-Snow,Snow,70,2013-03-05 15:51:00
10:18 AM,32.0,28.4,87,29.85,0.8,ENE,11.5,-,0.01,Snow,Light Snow,60,2013-03-05 16:18:00
10:51 AM,32.0,28.9,88,29.87,0.8,ENE,10.4,-,0.01,Snow,Light Snow,70,2013-03-05 16:51:00
11:36 AM,32.0,28.4,87,29.82,0.5,ENE,10.4,19.6,0.01,Fog-Snow,Snow,70,2013-03-05 17:36:00
11:51 AM,30.9,28.9,92,29.86,0.5,ENE,9.2,-,0.01,Fog-Snow,Snow,70,2013-03-05 17:51:00
12:51 PM,30.9,28.9,92,29.84,0.2,ENE,10.4,-,0.02,Fog-Snow,Snow,60,2013-03-05 18:51:00
1:18 PM,30.2,28.4,93,29.80,0.2,ENE,10.4,-,0.01,Fog-Snow,Snow,60,2013-03-05 19:18:00
1:51 PM,30.9,28.0,89,29.83,0.5,NE,15.0,-,0.02,Fog-Snow,Snow,50,2013-03-05 19:51:00
2:51 PM,30.0,28.0,92,29.83,0.2,NE,12.7,-,0.03,Fog-Snow,Heavy Snow,50,2013-03-05 20:51:00
3:51 PM,28.9,27.0,92,29.84,0.2,NE,16.1,-,0.01,Fog-Snow,Heavy Snow,40,2013-03-05 21:51:00
4:51 PM,28.9,27.0,92,29.86,0.5,NE,13.8,-,0.01,Fog-Snow,Snow,50,2013-03-05 22:51:00
5:46 PM,28.4,26.6,93,29.84,0.8,NE,8.1,-,0.02,Snow,Light Snow,40,2013-03-05 23:46:00
5:51 PM,28.9,27.0,92,29.88,0.8,NE,10.4,-,0.02,Snow,Light Snow,40,2013-03-05 23:51:00
6:24 PM,30.2,28.4,93,29.85,1.0,NNE,6.9,-,0.01,Snow,Light Snow,30,2013-03-06 00:24:00
6:51 PM,30.0,28.0,92,29.89,1.0,NNE,11.5,-,0.02,Snow,Light Snow,20,2013-03-06 00:51:00
7:39 PM,30.2,28.4,93,29.86,0.8,North,13.8,-,0.00,Snow,Light Snow,10,2013-03-06 01:39:00
7:51 PM,30.0,28.0,92,29.90,0.8,North,19.6,25.3,0.01,Snow,Light Snow,10,2013-03-06 01:51:00
7:58 PM,30.2,28.4,93,29.87,1.2,NNE,17.3,25.3,0.00,Snow,Light Snow,20,2013-03-06 01:58:00
8:51 PM,30.9,28.0,89,29.93,2.0,North,16.1,25.3,0.00,Snow,Light Snow,10,2013-03-06 02:51:00
9:09 PM,30.2,28.4,93,29.90,3.0,North,12.7,23.0,0.00,Snow,Light Snow,10,2013-03-06 03:09:00
9:51 PM,32.0,28.9,88,29.95,7.0,NNE,10.4,-,0.00,Snow,Light Snow,20,2013-03-06 03:51:00
10:43 PM,32.0,26.6,80,29.93,7.0,North,16.1,-,0.00,Snow,Light Snow,360,2013-03-06 04:43:00
10:51 PM,32.0,28.0,85,29.97,9.0,North,12.7,-,0.00,Snow,Light Snow,360,2013-03-06 04:51:00
11:19 PM,32.0,26.6,80,29.95,9.0,North,10.4,-,0.00,,Overcast,360,2013-03-06 05:19:00
11:51 PM,33.1,26.1,75,29.99,10.0,North,11.5,-,0.00,,Overcast,10,2013-03-06 05:51:00